Volver al catálogo

STARLINK-34564

ActivoComunicacionesSSO
NORAD 64852·PAYLOAD·🇺🇸 United States

Lanzado Jul 19, 2025 desde Vandenberg Space Force Base

Loading…

Próximos Pases (próximas 24 horas)

TLE

ActualizadoSource: CelesTrak SupGP

Época: Sep 14, 2026, 20:33 UTC

1 64852C 25152L   26257.85673611  .00018604  00000+0  57738-3 0  2577
2 64852  97.2841 108.5538 0001788  95.7616 244.4510 15.33435702    10

Sigue STARLINK-34564 en tiempo real con AllMySat

Download on the App Store